This demonstration page uses our WeatherBlox Daily Observations layout. Learn more.

Left ArrowRight Arrow

39.08367, -84.50855

Hourly Observations for April 5, 2018

Temp ( °F °C ) Dew Point ( °F °C ) Humidity (%) Winds ( mph kmh ) Pressure ( in mb ) Visibility ( mi km ) Precip ( " mm )
12:53 am 00:53 Partly Cloudy 32 undefined 19 -7.2 59 59 N N/A 30.30 1026 10 16 N/A
1:53 am 01:53 Clear 32 undefined 20 -6.7 61 61 N N/A 30.29 1026 10 16 N/A
2:53 am 02:53 Clear 31 -0.6 21 -6.1 67 67 N N/A 30.30 1026 10 16 N/A
3:53 am 03:53 Clear 30 -1.1 22 -5.6 72 72 N N/A 30.30 1026 10 16 N/A
4:53 am 04:53 Clear 31 -0.6 23 -5 72 72 N N/A 30.30 1026 10 16 N/A
5:53 am 05:53 Clear 29 -1.7 23 -5 78 78 S 3 6 30.29 1026 10 16 N/A
6:53 am 06:53 Clear 28 -2.2 25 -3.9 88 88 N N/A 30.29 1026 10 16 N/A
7:53 am 07:53 Sunny 29 -1.7 25 -3.9 85 85 VRB 3 6 30.32 1027 10 16 N/A
8:53 am 08:53 Sunny 33 0.6 26 -3.3 75 75 S 5 7 30.32 1027 10 16 N/A
9:53 am 09:53 Partly Cloudy 37 2.8 26 -3.3 65 65 WSW 9 15 30.33 1027 10 16 N/A
10:53 am 10:53 Sunny 40 4.4 23 -5 51 51 W 8 13 30.32 1027 10 16 N/A
11:53 am 11:53 Sunny 41 5 22 -5.6 47 47 WSW 10 17 30.32 1027 10 16 N/A
12:53 pm 12:53 Sunny 45 7.2 23 -5 42 42 SW 7 11 30.30 1026 10 16 N/A
1:53 pm 13:53 Sunny 46 7.8 23 -5 40 40 undefined N/A 30.26 1025 10 16 N/A
2:53 pm 14:53 Partly Cloudy 48 8.9 23 -5 37 37 SW 5 7 30.23 1024 10 16 N/A
3:53 pm 15:53 Mostly Cloudy 50 10 22 -5.6 33 33 NE 5 7 30.18 1022 10 16 N/A
4:53 pm 16:53 Mostly Sunny 50 10 25 -3.9 38 38 VRB 5 7 30.16 1021 10 16 N/A
5:53 pm 17:53 Sunny 50 10 24 -4.4 36 36 SW 5 7 30.13 1020 10 16 N/A
6:53 pm 18:53 Sunny 50 10 26 -3.3 39 39 SSW 7 11 30.10 1019 10 16 N/A
7:53 pm 19:53 Sunny 47 8.3 27 -2.8 46 46 S 3 6 30.09 1019 10 16 N/A
8:53 pm 20:53 Clear 46 7.8 29 -1.7 51 51 SSE 6 9 30.08 1019 10 16 N/A
9:53 pm 21:53 Clear 44 6.7 30 -1.1 58 58 S 5 7 30.06 1018 10 16 N/A
10:53 pm 22:53 Clear 43 6.1 31 -0.6 63 63 SSW 6 9 30.05 1018 10 16 N/A
11:53 pm 23:53 Cloudy 43 6.1 31 -0.6 63 63 SSW 6 9 30.04 1017 10 16 N/A

Powered by AerisWeather